Location: Holbach
(51.5399°N, 10.6036°E)
Time: 03:37:41
(UTC+00:00)

Cosmos 1766 - Pass Details

Date: 18 September 2020
Orbit: 522 x 543 km, 82.5° (Epoch: 22 October)

Event Time Altitude Azimuth Distance (km) Brightness Sun altitude
Exits shadow 19:34:05 43° 63° (ENE) 758 3.7 -20.0°
Drops below altitude 10° 19:37:15 10° 20° (NNE) 1,804 6.1 -20.5°
Sets 19:39:28 0° 15° (NNE) 2,705 7.1 -20.8°
